| time (UTC) | temp F | wind direction | speed MPH | gust MPH | rain 1hr in | rain 24hr in | rain mn in | humidity % | barometer mb |
| 20260905161327 | 87 | 44 | 3.0 | 6.0 | 0.00 | 0.00 | 0.00 | 71 | 1016.5 |
| 20260905160825 | 86 | 38 | 4.0 | 6.0 | 0.00 | 0.00 | 0.00 | 73 | 1016.7 |
| 20260905160319 | 86 | 8 | 6.0 | 9.0 | 0.00 | 0.00 | 0.00 | 72 | 1016.7 |
| 20260905155814 | 85 | 29 | 4.0 | 7.0 | 0.00 | 0.00 | 0.00 | 73 | 1016.6 |
| 20260905155312 | 86 | 40 | 7.0 | 8.0 | 0.00 | 0.00 | 0.00 | 74 | 1016.6 |
| 20260905154807 | 86 | 34 | 4.0 | 6.0 | 0.00 | 0.00 | 0.00 | 73 | 1016.6 |
| 20260905154303 | 85 | 22 | 3.0 | 3.0 | 0.00 | 0.00 | 0.00 | 76 | 1016.4 |
| 20260905153758 | 86 | 76 | 4.0 | 6.0 | 0.00 | 0.00 | 0.00 | 74 | 1016.4 |
| 20260905153255 | 85 | 357 | 3.0 | 4.0 | 0.00 | 0.00 | 0.00 | 75 | 1016.3 |
| 20260905152749 | 85 | 30 | 4.0 | 4.0 | 0.00 | 0.00 | 0.00 | 75 | 1016.5 |
| 20260905152248 | 86 | 37 | 3.0 | 3.0 | 0.00 | 0.00 | 0.00 | 74 | 1016.3 |
| 20260905151748 | 85 | 41 | 3.0 | 6.0 | 0.00 | 0.00 | 0.00 | 74 | 1016.2 |
| 20260905151244 | 85 | 72 | 4.0 | 6.0 | 0.00 | 0.00 | 0.00 | 74 | 1016.2 |
| 20260905150743 | 85 | 0 | 4.0 | 6.0 | 0.00 | 0.00 | 0.00 | 75 | 1016.3 |
| 20260905150238 | 84 | 38 | 3.0 | 3.0 | 0.00 | 0.00 | 0.00 | 75 | 1016.4 |
| 20260905145735 | 85 | 36 | 2.0 | 3.0 | 0.00 | 0.00 | 0.00 | 75 | 1016.3 |
| 20260905145230 | 84 | 324 | 3.0 | 3.0 | 0.00 | 0.00 | 0.00 | 74 | 1016.2 |
| 20260905144728 | 85 | 63 | 2.0 | 3.0 | 0.00 | 0.00 | 0.00 | 74 | 1016.1 |
| 20260905144224 | 84 | 60 | 4.0 | 7.0 | 0.00 | 0.00 | 0.00 | 75 | 1015.9 |
| 20260905143718 | 86 | 5 | 4.0 | 6.0 | 0.00 | 0.00 | 0.00 | 75 | 1016.0 |
| 20260905143217 | 84 | 53 | 4.0 | 7.0 | 0.00 | 0.00 | 0.00 | 76 | 1015.8 |
| 20260905142716 | 84 | 1 | 3.0 | 3.0 | 0.00 | 0.00 | 0.00 | 78 | 1015.7 |
| 20260905142211 | 84 | 23 | 4.0 | 6.0 | 0.00 | 0.00 | 0.00 | 79 | 1015.6 |
| 20260905141706 | 83 | 6 | 2.0 | 3.0 | 0.00 | 0.00 | 0.00 | 80 | 1016.0 |
| 20260905141203 | 82 | 67 | 3.0 | 3.0 | 0.00 | 0.00 | 0.00 | 81 | 1015.7 |
| 20260905140657 | 82 | 26 | 2.0 | 3.0 | 0.00 | 0.00 | 0.00 | 81 | 1015.8 |
| 20260905140151 | 83 | 25 | 2.0 | 3.0 | 0.00 | 0.00 | 0.00 | 81 | 1015.6 |
| 20260905135646 | 82 | 29 | 1.0 | 2.0 | 0.00 | 0.00 | 0.00 | 82 | 1015.6 |
| 20260905135142 | 82 | 3 | 1.0 | 2.0 | 0.00 | 0.00 | 0.00 | 83 | 1015.6 |
| 20260905134641 | 81 | 24 | 1.0 | 1.0 | 0.00 | 0.00 | 0.00 | 85 | 1015.6 |
| 20260905134140 | 81 | 37 | 1.0 | 1.0 | 0.00 | 0.00 | 0.00 | 84 | 1015.5 |
| 20260905133636 | 81 | 12 | 2.0 | 2.0 | 0.00 | 0.00 | 0.00 | 85 | 1015.4 |
| 20260905133135 | 79 | 357 | 1.0 | 2.0 | 0.00 | 0.00 | 0.00 | 87 | 1015.4 |
| 20260905132635 | 79 | 354 | 1.0 | 1.0 | 0.00 | 0.00 | 0.00 | 88 | 1015.3 |
| 20260905132130 | 79 | 339 | 2.0 | 3.0 | 0.00 | 0.00 | 0.00 | 88 | 1015.2 |
| 20260905131625 | 78 | 4 | 1.0 | 1.0 | 0.00 | 0.00 | 0.00 | 88 | 1015.3 |
| 20260905131121 | 79 | 343 | 1.0 | 2.0 | 0.00 | 0.00 | 0.00 | 87 | 1015.3 |
| 20260905130621 | 78 | 344 | 0.0 | 1.0 | 0.00 | 0.00 | 0.00 | 88 | 1015.3 |
| 20260905130115 | 78 | 336 | 0.0 | 1.0 | 0.00 | 0.00 | 0.00 | 89 | 1015.4 |
| 20260905125614 | 78 | 350 | 1.0 | 1.0 | 0.00 | 0.00 | 0.00 | 88 | 1015.4 |
| 20260905125110 | 78 | 5 | 2.0 | 2.0 | 0.00 | 0.00 | 0.00 | 87 | 1015.3 |
| 20260905124601 | 79 | 353 | 0.0 | 1.0 | 0.00 | 0.00 | 0.00 | 86 | 1015.2 |
| 20260905124057 | 78 | 349 | 0.0 | 1.0 | 0.00 | 0.00 | 0.00 | 88 | 1015.2 |
| 20260905123552 | 77 | 354 | 0.0 | 1.0 | 0.00 | 0.00 | 0.00 | 90 | 1015.3 |
| 20260905123049 | 76 | 351 | 0.0 | 0.0 | 0.00 | 0.00 | 0.00 | 91 | 1015.2 |
| 20260905122548 | 75 | 344 | 0.0 | 0.0 | 0.00 | 0.00 | 0.00 | 93 | 1015.2 |
| 20260905122043 | 75 | 346 | 1.0 | 1.0 | 0.00 | 0.00 | 0.00 | 94 | 1015.1 |
| 20260905121537 | 74 | 357 | 0.0 | 0.0 | 0.00 | 0.00 | 0.00 | 96 | 1015.2 |
| 20260905121033 | 74 | 347 | 1.0 | 1.0 | 0.00 | 0.00 | 0.00 | 96 | 1015.0 |
| 20260905120532 | 73 | 349 | 2.0 | 2.0 | 0.00 | 0.00 | 0.00 | 97 | 1015.0 |
| 20260905120027 | 73 | 357 | 2.0 | 2.0 | 0.00 | 0.00 | 0.00 | 97 | 1015.1 |
| 20260905115526 | 73 | 342 | 1.0 | 1.0 | 0.00 | 0.00 | 0.00 | 97 | 1014.8 |
| 20260905115021 | 73 | 349 | 4.0 | 4.0 | 0.00 | 0.00 | 0.00 | 97 | 1014.9 |
| 20260905114520 | 74 | 0 | 2.0 | 2.0 | 0.00 | 0.00 | 0.00 | 97 | 1014.6 |
| 20260905114020 | 74 | 340 | 1.0 | 1.0 | 0.00 | 0.00 | 0.00 | 97 | 1014.6 |
| 20260905113515 | 74 | 339 | 1.0 | 1.0 | 0.00 | 0.00 | 0.00 | 97 | 1014.4 |
| 20260905113011 | 74 | 0 | 1.0 | 1.0 | 0.00 | 0.00 | 0.00 | 97 | 1014.3 |
| 20260905112506 | 74 | 348 | 1.0 | 2.0 | 0.00 | 0.00 | 0.00 | 97 | 1014.3 |
| 20260905112001 | 74 | 351 | 2.0 | 2.0 | 0.00 | 0.00 | 0.00 | 97 | 1014.3 |
| 20260905111500 | 74 | 344 | 0.0 | 1.0 | 0.00 | 0.00 | 0.00 | 97 | 1014.2 |
| 20260905110955 | 74 | 349 | 1.0 | 1.0 | 0.00 | 0.00 | 0.00 | 97 | 1014.2 |
| 20260905110454 | 74 | 337 | 0.0 | 1.0 | 0.00 | 0.00 | 0.00 | 97 | 1013.9 |
| 20260905105948 | 74 | 337 | 0.0 | 0.0 | 0.00 | 0.00 | 0.00 | 97 | 1013.5 |
| 20260905105443 | 74 | 340 | 0.0 | 0.0 | 0.00 | 0.00 | 0.00 | 97 | 1013.7 |
| 20260905104942 | 74 | 334 | 0.0 | 1.0 | 0.00 | 0.00 | 0.00 | 97 | 1013.9 |
| 20260905104438 | 74 | 339 | 1.0 | 1.0 | 0.00 | 0.00 | 0.00 | 97 | 1013.6 |
| 20260905103933 | 74 | 342 | 1.0 | 1.0 | 0.00 | 0.00 | 0.00 | 97 | 1013.7 |
| 20260905103429 | 75 | 357 | 0.0 | 0.0 | 0.00 | 0.00 | 0.00 | 96 | 1013.6 |
| 20260905102925 | 75 | 7 | 1.0 | 1.0 | 0.00 | 0.00 | 0.00 | 96 | 1013.7 |
| 20260905102421 | 75 | 354 | 0.0 | 1.0 | 0.00 | 0.00 | 0.00 | 97 | 1013.9 |
| 20260905101916 | 75 | 344 | 0.0 | 0.0 | 0.00 | 0.00 | 0.00 | 97 | 1013.7 |
| 20260905101414 | 75 | 344 | 0.0 | 0.0 | 0.00 | 0.00 | 0.00 | 97 | 1013.9 |
| 20260905100909 | 75 | 347 | 0.0 | 0.0 | 0.00 | 0.00 | 0.00 | 97 | 1014.1 |
| 20260905100404 | 75 | 353 | 1.0 | 1.0 | 0.00 | 0.00 | 0.00 | 97 | 1014.0 |
| 20260905095903 | 75 | 338 | 1.0 | 2.0 | 0.00 | 0.00 | 0.00 | 96 | 1014.2 |
| 20260905095359 | 75 | 345 | 1.0 | 1.0 | 0.00 | 0.00 | 0.00 | 96 | 1014.2 |
| 20260905094858 | 75 | 345 | 1.0 | 2.0 | 0.00 | 0.00 | 0.00 | 96 | 1014.0 |
| 20260905094354 | 75 | 349 | 0.0 | 0.0 | 0.00 | 0.00 | 0.00 | 96 | 1013.7 |
| 20260905093853 | 75 | 345 | 1.0 | 1.0 | 0.00 | 0.00 | 0.00 | 95 | 1014.1 |
| 20260905093348 | 75 | 338 | 0.0 | 0.0 | 0.00 | 0.00 | 0.00 | 95 | 1014.1 |
| 20260905092844 | 76 | 357 | 1.0 | 1.0 | 0.00 | 0.00 | 0.00 | 95 | 1014.3 |
| 20260905092344 | 75 | 348 | 0.0 | 1.0 | 0.00 | 0.00 | 0.00 | 95 | 1014.2 |
| 20260905091839 | 75 | 337 | 1.0 | 1.0 | 0.00 | 0.00 | 0.00 | 96 | 1014.2 |
| 20260905091333 | 75 | 338 | 1.0 | 1.0 | 0.00 | 0.00 | 0.00 | 96 | 1014.3 |
| 20260905090832 | 75 | 332 | 1.0 | 1.0 | 0.00 | 0.00 | 0.00 | 96 | 1014.2 |
| 20260905090328 | 75 | 337 | 0.0 | 1.0 | 0.00 | 0.00 | 0.00 | 96 | 1014.2 |
| 20260905085827 | 76 | 1 | 3.0 | 3.0 | 0.00 | 0.00 | 0.00 | 95 | 1014.3 |
| 20260905085322 | 76 | 352 | 1.0 | 2.0 | 0.00 | 0.00 | 0.00 | 95 | 1014.2 |
| 20260905084817 | 77 | 347 | 0.0 | 0.0 | 0.00 | 0.00 | 0.00 | 94 | 1014.3 |
| 20260905084317 | 76 | 339 | 0.0 | 0.0 | 0.00 | 0.00 | 0.00 | 95 | 1014.4 |
| 20260905083812 | 76 | 332 | 0.0 | 1.0 | 0.00 | 0.00 | 0.00 | 95 | 1014.5 |
| 20260905083308 | 76 | 330 | 1.0 | 1.0 | 0.00 | 0.00 | 0.00 | 95 | 1014.6 |
| 20260905082803 | 76 | 334 | 1.0 | 2.0 | 0.00 | 0.00 | 0.00 | 95 | 1014.6 |
| 20260905082259 | 77 | 352 | 1.0 | 1.0 | 0.00 | 0.00 | 0.00 | 95 | 1014.7 |
| 20260905081754 | 76 | 331 | 1.0 | 1.0 | 0.00 | 0.00 | 0.00 | 95 | 1014.4 |
| 20260905081249 | 76 | 342 | 0.0 | 1.0 | 0.00 | 0.00 | 0.00 | 95 | 1014.5 |
| 20260905080748 | 76 | 346 | 0.0 | 1.0 | 0.00 | 0.00 | 0.00 | 95 | 1014.6 |
| 20260905080242 | 76 | 7 | 2.0 | 2.0 | 0.00 | 0.00 | 0.00 | 95 | 1014.5 |
| 20260905075741 | 77 | 346 | 1.0 | 1.0 | 0.00 | 0.00 | 0.00 | 95 | 1014.6 |
| 20260905075240 | 77 | 355 | 1.0 | 1.0 | 0.00 | 0.00 | 0.00 | 94 | 1014.3 |
| 20260905074739 | 77 | 346 | 0.0 | 0.0 | 0.00 | 0.00 | 0.00 | 94 | 1014.3 |
| 20260905074235 | 78 | 347 | 0.0 | 1.0 | 0.00 | 0.00 | 0.00 | 93 | 1014.3 |
| 20260905073731 | 78 | 339 | 0.0 | 0.0 | 0.00 | 0.00 | 0.00 | 93 | 1014.3 |
| 20260905073226 | 78 | 315 | 1.0 | 1.0 | 0.00 | 0.00 | 0.00 | 93 | 1014.2 |
| 20260905072725 | 78 | 317 | 1.0 | 2.0 | 0.00 | 0.00 | 0.00 | 93 | 1014.3 |
| 20260905072221 | 78 | 310 | 1.0 | 1.0 | 0.00 | 0.00 | 0.00 | 94 | 1014.4 |
| 20260905071718 | 77 | 324 | 1.0 | 1.0 | 0.00 | 0.00 | 0.00 | 94 | 1014.4 |
| 20260905071213 | 77 | 340 | 1.0 | 1.0 | 0.00 | 0.00 | 0.00 | 95 | 1014.5 |
| 20260905070708 | 77 | 336 | 1.0 | 1.0 | 0.00 | 0.00 | 0.00 | 95 | 1014.5 |
| 20260905070204 | 77 | 344 | 0.0 | 0.0 | 0.00 | 0.00 | 0.00 | 95 | 1014.5 |
| 20260905065702 | 77 | 345 | 2.0 | 2.0 | 0.00 | 0.00 | 0.00 | 95 | 1014.7 |
| 20260905065157 | 78 | 359 | 2.0 | 2.0 | 0.00 | 0.00 | 0.00 | 94 | 1014.7 |
| 20260905064652 | 78 | 9 | 1.0 | 2.0 | 0.00 | 0.00 | 0.00 | 94 | 1014.6 |
| 20260905064148 | 78 | 341 | 0.0 | 1.0 | 0.00 | 0.00 | 0.00 | 94 | 1014.6 |
| 20260905063646 | 78 | 346 | 0.0 | 0.0 | 0.00 | 0.00 | 0.00 | 94 | 1014.5 |
| 20260905063143 | 78 | 345 | 1.0 | 1.0 | 0.00 | 0.00 | 0.00 | 94 | 1014.5 |
| 20260905062638 | 78 | 344 | 1.0 | 1.0 | 0.00 | 0.00 | 0.00 | 94 | 1014.4 |
| 20260905062137 | 78 | 332 | 1.0 | 1.0 | 0.00 | 0.00 | 0.00 | 94 | 1014.7 |
| 20260905061632 | 78 | 346 | 0.0 | 0.0 | 0.00 | 0.00 | 0.00 | 95 | 1014.8 |
| 20260905061132 | 78 | 17 | 5.0 | 6.0 | 0.00 | 0.00 | 0.00 | 95 | 1015.0 |
| 20260905060627 | 78 | 14 | 4.0 | 6.0 | 0.00 | 0.00 | 0.00 | 94 | 1014.7 |
| 20260905060124 | 79 | 359 | 1.0 | 1.0 | 0.00 | 0.00 | 0.00 | 93 | 1014.6 |
| 20260905055622 | 79 | 348 | 1.0 | 2.0 | 0.00 | 0.00 | 0.00 | 93 | 1014.6 |
| 20260905055118 | 79 | 326 | 1.0 | 1.0 | 0.00 | 0.00 | 0.00 | 93 | 1014.4 |
| 20260905054614 | 78 | 337 | 1.0 | 1.0 | 0.00 | 0.00 | 0.00 | 94 | 1014.3 |
| 20260905054109 | 78 | 344 | 0.0 | 0.0 | 0.00 | 0.00 | 0.00 | 94 | 1014.4 |
| 20260905053608 | 78 | 340 | 0.0 | 0.0 | 0.00 | 0.00 | 0.00 | 94 | 1014.6 |
| 20260905053103 | 79 | 353 | 2.0 | 2.0 | 0.00 | 0.00 | 0.00 | 94 | 1014.4 |
| 20260905052603 | 79 | 343 | 1.0 | 1.0 | 0.00 | 0.00 | 0.00 | 93 | 1014.3 |
| 20260905052057 | 79 | 347 | 1.0 | 1.0 | 0.00 | 0.00 | 0.00 | 93 | 1014.3 |
| 20260905051553 | 79 | 331 | 1.0 | 1.0 | 0.00 | 0.00 | 0.00 | 93 | 1014.3 |
| 20260905051050 | 79 | 4 | 1.0 | 1.0 | 0.00 | 0.00 | 0.00 | 93 | 1014.4 |
| 20260905050546 | 79 | 331 | 1.0 | 2.0 | 0.00 | 0.00 | 0.00 | 92 | 1014.4 |
| 20260905050042 | 80 | 348 | 1.0 | 2.0 | 0.00 | 0.00 | 0.00 | 92 | 1014.5 |
| 20260905045537 | 79 | 348 | 0.0 | 0.0 | 0.00 | 0.00 | 0.00 | 91 | 1014.3 |
| 20260905045032 | 80 | 0 | 1.0 | 1.0 | 0.00 | 0.00 | 0.00 | 90 | 1014.7 |
| 20260905044532 | 81 | 12 | 2.0 | 3.0 | 0.00 | 0.00 | 0.00 | 88 | 1014.8 |
| 20260905044027 | 81 | 357 | 1.0 | 1.0 | 0.00 | 0.00 | 0.00 | 86 | 1014.5 |
| 20260905043526 | 81 | 19 | 2.0 | 2.0 | 0.00 | 0.00 | 0.00 | 86 | 1014.4 |
| 20260905043021 | 81 | 351 | 1.0 | 1.0 | 0.00 | 0.00 | 0.00 | 86 | 1014.3 |
| 20260905042514 | 81 | 338 | 0.0 | 0.0 | 0.00 | 0.00 | 0.00 | 86 | 1014.1 |
| 20260905042004 | 81 | 337 | 1.0 | 1.0 | 0.00 | 0.00 | 0.00 | 86 | 1014.4 |
| 20260905041500 | 81 | 339 | 1.0 | 1.0 | 0.00 | 0.00 | 0.00 | 86 | 1014.4 |
| 20260905040955 | 81 | 346 | 0.0 | 0.0 | 0.00 | 0.00 | 0.00 | 85 | 1014.4 |
| 20260905040454 | 82 | 9 | 1.0 | 2.0 | 0.00 | 0.00 | 0.00 | 85 | 1014.4 |
| 20260905035953 | 82 | 24 | 1.0 | 1.0 | 0.00 | 0.00 | 0.00 | 84 | 1014.5 |
| 20260905035448 | 82 | 19 | 1.0 | 1.0 | 0.00 | 0.00 | 0.00 | 84 | 1014.5 |
| 20260905034946 | 82 | 17 | 2.0 | 2.0 | 0.00 | 0.00 | 0.00 | 84 | 1014.4 |
| 20260905034441 | 82 | 52 | 2.0 | 3.0 | 0.00 | 0.00 | 0.00 | 83 | 1014.4 |
| 20260905033940 | 82 | 32 | 1.0 | 2.0 | 0.00 | 0.00 | 0.00 | 83 | 1014.4 |
| 20260905033439 | 82 | 13 | 1.0 | 2.0 | 0.00 | 0.00 | 0.00 | 83 | 1014.4 |
| 20260905032934 | 82 | 14 | 1.0 | 1.0 | 0.00 | 0.00 | 0.00 | 83 | 1014.4 |
| 20260905032430 | 83 | 349 | 2.0 | 2.0 | 0.00 | 0.00 | 0.00 | 82 | 1014.4 |
| 20260905031924 | 83 | 351 | 1.0 | 1.0 | 0.00 | 0.00 | 0.00 | 81 | 1014.4 |
| 20260905031421 | 82 | 46 | 2.0 | 3.0 | 0.00 | 0.00 | 0.00 | 82 | 1014.4 |
| 20260905030916 | 82 | 11 | 1.0 | 2.0 | 0.00 | 0.00 | 0.00 | 82 | 1014.4 |
| 20260905030411 | 83 | 13 | 1.0 | 1.0 | 0.00 | 0.00 | 0.00 | 81 | 1014.6 |
| 20260905025910 | 83 | 14 | 0.0 | 1.0 | 0.00 | 0.00 | 0.00 | 81 | 1014.4 |
| 20260905025405 | 83 | 52 | 2.0 | 2.0 | 0.00 | 0.00 | 0.00 | 81 | 1014.4 |
| 20260905024902 | 83 | 9 | 1.0 | 1.0 | 0.00 | 0.00 | 0.00 | 80 | 1014.5 |
| 20260905024356 | 83 | 10 | 1.0 | 1.0 | 0.00 | 0.00 | 0.00 | 80 | 1014.2 |
| 20260905023852 | 84 | 4 | 0.0 | 1.0 | 0.00 | 0.00 | 0.00 | 78 | 1014.1 |
| 20260905023347 | 84 | 352 | 0.0 | 0.0 | 0.00 | 0.00 | 0.00 | 78 | 1014.0 |
| 20260905022846 | 84 | 37 | 2.0 | 2.0 | 0.00 | 0.00 | 0.00 | 78 | 1014.1 |
| 20260905022341 | 84 | 38 | 2.0 | 2.0 | 0.00 | 0.00 | 0.00 | 78 | 1014.1 |
| 20260905021836 | 84 | 0 | 1.0 | 1.0 | 0.00 | 0.00 | 0.00 | 77 | 1014.1 |
| 20260905021331 | 84 | 13 | 0.0 | 1.0 | 0.00 | 0.00 | 0.00 | 76 | 1013.9 |
| 20260905020826 | 84 | 2 | 2.0 | 3.0 | 0.00 | 0.00 | 0.00 | 76 | 1013.6 |
| 20260905020321 | 85 | 346 | 2.0 | 2.0 | 0.00 | 0.00 | 0.00 | 75 | 1013.6 |
| 20260905015820 | 85 | 347 | 0.0 | 1.0 | 0.00 | 0.00 | 0.00 | 74 | 1013.5 |
| 20260905015314 | 85 | 18 | 2.0 | 2.0 | 0.00 | 0.00 | 0.00 | 74 | 1013.4 |
| 20260905014813 | 86 | 328 | 2.0 | 3.0 | 0.00 | 0.00 | 0.00 | 73 | 1013.2 |
| 20260905014309 | 85 | 347 | 0.0 | 0.0 | 0.00 | 0.00 | 0.00 | 73 | 1012.9 |
| 20260905013804 | 86 | 301 | 2.0 | 2.0 | 0.00 | 0.00 | 0.00 | 73 | 1012.6 |
| 20260905013300 | 86 | 325 | 1.0 | 1.0 | 0.00 | 0.00 | 0.00 | 72 | 1012.4 |
| 20260905012755 | 86 | 352 | 1.0 | 1.0 | 0.00 | 0.00 | 0.00 | 71 | 1012.4 |
| 20260905012251 | 87 | 319 | 2.0 | 2.0 | 0.00 | 0.00 | 0.00 | 71 | 1012.6 |
| 20260905011748 | 87 | 235 | 4.0 | 6.0 | 0.00 | 0.00 | 0.00 | 70 | 1012.3 |
| 20260905011243 | 87 | 70 | 7.0 | 8.0 | 0.00 | 0.00 | 0.00 | 70 | 1012.2 |
| 20260905010737 | 88 | 231 | 3.0 | 4.0 | 0.00 | 0.00 | 0.00 | 69 | 1012.3 |
| 20260905010232 | 88 | 252 | 8.0 | 9.0 | 0.00 | 0.00 | 0.00 | 68 | 1012.3 |
| 20260905005729 | 89 | 290 | 6.0 | 9.0 | 0.00 | 0.00 | 0.00 | 66 | 1012.4 |
| 20260905005225 | 89 | 251 | 5.0 | 7.0 | 0.00 | 0.00 | 0.00 | 66 | 1012.4 |
| 20260905004724 | 88 | 250 | 7.0 | 8.0 | 0.00 | 0.00 | 0.00 | 67 | 1012.6 |
| 20260905004220 | 89 | 253 | 7.0 | 9.0 | 0.00 | 0.00 | 0.00 | 67 | 1012.9 |
| 20260905003720 | 89 | 262 | 8.0 | 9.0 | 0.00 | 0.00 | 0.00 | 68 | 1013.0 |
| 20260905003216 | 89 | 267 | 5.0 | 6.0 | 0.00 | 0.00 | 0.00 | 69 | 1013.0 |
| 20260905002711 | 89 | 251 | 4.0 | 6.0 | 0.00 | 0.00 | 0.00 | 68 | 1013.3 |
| 20260905002211 | 89 | 271 | 3.0 | 4.0 | 0.00 | 0.00 | 0.00 | 68 | 1013.4 |
| 20260905001706 | 90 | 248 | 3.0 | 4.0 | 0.00 | 0.00 | 0.00 | 67 | 1013.4 |
| 20260905001205 | 90 | 328 | 3.0 | 4.0 | 0.00 | 0.00 | 0.00 | 66 | 1013.5 |
| 20260905000700 | 91 | 290 | 3.0 | 3.0 | 0.00 | 0.00 | 0.00 | 65 | 1013.7 |
| 20260905000156 | 91 | 291 | 2.0 | 2.0 | 0.00 | 0.00 | 0.00 | 64 | 1013.6 |
| 20260904235657 | 91 | 304 | 2.0 | 2.0 | 0.00 | 0.00 | 0.00 | 64 | 1013.7 |
| 20260904235156 | 91 | 322 | 3.0 | 3.0 | 0.00 | 0.00 | 0.00 | 63 | 1013.6 |
| 20260904234651 | 92 | 327 | 1.0 | 1.0 | 0.00 | 0.00 | 0.00 | 63 | 1013.9 |
| 20260904234147 | 92 | 326 | 3.0 | 4.0 | 0.00 | 0.00 | 0.00 | 62 | 1013.7 |
| 20260904233642 | 92 | 291 | 2.0 | 3.0 | 0.00 | 0.00 | 0.00 | 62 | 1013.7 |
| 20260904233138 | 93 | 337 | 2.0 | 2.0 | 0.00 | 0.00 | 0.00 | 60 | 1013.9 |
| 20260904232635 | 93 | 255 | 4.0 | 4.0 | 0.00 | 0.00 | 0.00 | 60 | 1013.7 |
| 20260904232131 | 94 | 327 | 2.0 | 2.0 | 0.00 | 0.00 | 0.00 | 59 | 1013.7 |
| 20260904231626 | 94 | 307 | 4.0 | 4.0 | 0.00 | 0.00 | 0.00 | 59 | 1013.9 |
| 20260904231126 | 94 | 305 | 2.0 | 2.0 | 0.00 | 0.00 | 0.00 | 58 | 1013.6 |
| 20260904230621 | 94 | 271 | 4.0 | 6.0 | 0.00 | 0.00 | 0.00 | 58 | 1014.0 |
| 20260904230116 | 94 | 274 | 5.0 | 6.0 | 0.00 | 0.00 | 0.00 | 58 | 1013.9 |
| 20260904225614 | 94 | 297 | 6.0 | 8.0 | 0.00 | 0.00 | 0.00 | 58 | 1013.7 |
| 20260904225108 | 94 | 273 | 4.0 | 7.0 | 0.00 | 0.00 | 0.00 | 58 | 1014.0 |
| 20260904224603 | 94 | 333 | 2.0 | 2.0 | 0.00 | 0.00 | 0.00 | 56 | 1013.6 |
| 20260904224058 | 95 | 257 | 6.0 | 8.0 | 0.00 | 0.00 | 0.00 | 56 | 1013.3 |
| 20260904223557 | 95 | 289 | 4.0 | 6.0 | 0.00 | 0.00 | 0.00 | 55 | 1013.2 |
| 20260904223053 | 95 | 249 | 9.0 | 11.0 | 0.00 | 0.00 | 0.00 | 55 | 1012.9 |
| 20260904222548 | 95 | 279 | 6.0 | 8.0 | 0.00 | 0.00 | 0.00 | 55 | 1012.8 |
| 20260904222043 | 95 | 251 | 9.0 | 11.0 | 0.00 | 0.00 | 0.00 | 55 | 1012.8 |
| 20260904221538 | 95 | 252 | 9.0 | 11.0 | 0.00 | 0.00 | 0.00 | 55 | 1012.7 |
| 20260904221033 | 95 | 14 | 11.0 | 13.0 | 0.00 | 0.00 | 0.00 | 55 | 1012.7 |
| 20260904220533 | 95 | 250 | 6.0 | 8.0 | 0.00 | 0.00 | 0.00 | 56 | 1012.6 |
| 20260904220029 | 94 | 271 | 7.0 | 9.0 | 0.00 | 0.00 | 0.00 | 56 | 1012.6 |
| 20260904215528 | 95 | 267 | 6.0 | 9.0 | 0.00 | 0.00 | 0.00 | 55 | 1012.6 |
| 20260904215024 | 95 | 215 | 7.0 | 8.0 | 0.00 | 0.00 | 0.00 | 55 | 1012.6 |
| 20260904214520 | 94 | 327 | 7.0 | 9.0 | 0.00 | 0.00 | 0.00 | 55 | 1012.6 |
| 20260904214015 | 95 | 223 | 5.0 | 7.0 | 0.00 | 0.00 | 0.00 | 54 | 1012.7 |
| 20260904213512 | 95 | 237 | 9.0 | 13.0 | 0.00 | 0.00 | 0.00 | 56 | 1012.9 |
| 20260904213010 | 95 | 270 | 10.0 | 11.0 | 0.00 | 0.00 | 0.00 | 57 | 1013.0 |
| 20260904212508 | 95 | 215 | 6.0 | 7.0 | 0.00 | 0.00 | 0.00 | 56 | 1012.9 |
| 20260904212003 | 95 | 288 | 8.0 | 10.0 | 0.00 | 0.00 | 0.00 | 54 | 1013.1 |
| 20260904211458 | 96 | 339 | 3.0 | 4.0 | 0.00 | 0.00 | 0.00 | 54 | 1013.0 |
| 20260904210954 | 96 | 283 | 4.0 | 6.0 | 0.00 | 0.00 | 0.00 | 55 | 1013.0 |
| 20260904210453 | 95 | 236 | 4.0 | 4.0 | 0.00 | 0.00 | 0.00 | 55 | 1013.0 |
| 20260904205949 | 95 | 262 | 8.0 | 9.0 | 0.00 | 0.00 | 0.00 | 55 | 1012.9 |
| 20260904205444 | 95 | 261 | 10.0 | 14.0 | 0.00 | 0.00 | 0.00 | 54 | 1013.0 |
| 20260904204942 | 95 | 265 | 6.0 | 8.0 | 0.00 | 0.00 | 0.00 | 55 | 1013.0 |
| 20260904204442 | 95 | 267 | 5.0 | 6.0 | 0.00 | 0.00 | 0.00 | 55 | 1012.9 |
| 20260904203938 | 95 | 266 | 9.0 | 10.0 | 0.00 | 0.00 | 0.00 | 55 | 1012.9 |
| 20260904203434 | 93 | 274 | 7.0 | 9.0 | 0.00 | 0.00 | 0.00 | 57 | 1012.9 |
| 20260904202930 | 93 | 260 | 4.0 | 6.0 | 0.00 | 0.00 | 0.00 | 59 | 1012.9 |
| 20260904202426 | 93 | 275 | 4.0 | 4.0 | 0.00 | 0.00 | 0.00 | 59 | 1012.9 |
| 20260904201921 | 93 | 259 | 9.0 | 9.0 | 0.00 | 0.00 | 0.00 | 58 | 1013.0 |
| 20260904201416 | 93 | 242 | 6.0 | 9.0 | 0.00 | 0.00 | 0.00 | 58 | 1013.1 |
| 20260904200913 | 93 | 262 | 5.0 | 6.0 | 0.00 | 0.00 | 0.00 | 58 | 1013.2 |
| 20260904200410 | 93 | 243 | 6.0 | 8.0 | 0.00 | 0.00 | 0.00 | 58 | 1013.2 |
| 20260904195907 | 93 | 227 | 5.0 | 7.0 | 0.00 | 0.00 | 0.00 | 58 | 1013.3 |
| 20260904195404 | 93 | 279 | 1.0 | 2.0 | 0.00 | 0.00 | 0.00 | 58 | 1013.4 |
| 20260904194858 | 93 | 274 | 3.0 | 4.0 | 0.00 | 0.00 | 0.00 | 58 | 1013.6 |
| 20260904194358 | 93 | 260 | 5.0 | 7.0 | 0.00 | 0.00 | 0.00 | 58 | 1013.6 |
| 20260904193854 | 93 | 235 | 9.0 | 11.0 | 0.00 | 0.00 | 0.00 | 58 | 1014.0 |
| 20260904193349 | 93 | 281 | 6.0 | 7.0 | 0.00 | 0.00 | 0.00 | 58 | 1013.4 |
| 20260904192844 | 94 | 281 | 6.0 | 8.0 | 0.00 | 0.00 | 0.00 | 57 | 1014.0 |
| 20260904192339 | 93 | 300 | 7.0 | 8.0 | 0.00 | 0.00 | 0.00 | 56 | 1013.9 |
| 20260904191836 | 94 | 289 | 6.0 | 7.0 | 0.00 | 0.00 | 0.00 | 56 | 1013.9 |
| 20260904191332 | 95 | 269 | 11.0 | 13.0 | 0.00 | 0.00 | 0.00 | 54 | 1014.3 |
| 20260904190828 | 94 | 283 | 4.0 | 6.0 | 0.00 | 0.00 | 0.00 | 56 | 1014.0 |
| 20260904190324 | 94 | 214 | 4.0 | 6.0 | 0.00 | 0.00 | 0.00 | 56 | 1014.1 |
| 20260904185820 | 94 | 243 | 9.0 | 13.0 | 0.00 | 0.00 | 0.00 | 54 | 1014.2 |
| 20260904185316 | 94 | 278 | 8.0 | 11.0 | 0.00 | 0.00 | 0.00 | 55 | 1014.3 |
| 20260904184815 | 94 | 247 | 5.0 | 6.0 | 0.00 | 0.00 | 0.00 | 54 | 1014.3 |
| 20260904184310 | 95 | 272 | 5.0 | 7.0 | 0.00 | 0.00 | 0.00 | 54 | 1014.2 |
| 20260904183806 | 95 | 254 | 11.0 | 11.0 | 0.00 | 0.00 | 0.00 | 54 | 1014.4 |
| 20260904183305 | 95 | 266 | 7.0 | 9.0 | 0.00 | 0.00 | 0.00 | 53 | 1014.3 |
| 20260904182800 | 94 | 245 | 8.0 | 10.0 | 0.00 | 0.00 | 0.00 | 53 | 1014.7 |
| 20260904182255 | 94 | 5 | 5.0 | 7.0 | 0.00 | 0.00 | 0.00 | 54 | 1014.4 |
| 20260904181751 | 94 | 8 | 5.0 | 8.0 | 0.00 | 0.00 | 0.00 | 55 | 1014.7 |
| 20260904181251 | 94 | 274 | 5.0 | 6.0 | 0.00 | 0.00 | 0.00 | 57 | 1014.5 |
| 20260904180746 | 94 | 308 | 4.0 | 4.0 | 0.00 | 0.00 | 0.00 | 55 | 1014.5 |
| 20260904180242 | 94 | 242 | 2.0 | 4.0 | 0.00 | 0.00 | 0.00 | 55 | 1014.5 |
| 20260904175741 | 93 | 321 | 3.0 | 3.0 | 0.00 | 0.00 | 0.00 | 55 | 1014.6 |
| 20260904175239 | 94 | 270 | 6.0 | 7.0 | 0.00 | 0.00 | 0.00 | 55 | 1014.7 |
| 20260904174734 | 93 | 322 | 3.0 | 3.0 | 0.00 | 0.00 | 0.00 | 58 | 1014.6 |
| 20260904174230 | 93 | 268 | 6.0 | 8.0 | 0.00 | 0.00 | 0.00 | 56 | 1014.6 |
| 20260904173726 | 95 | 260 | 7.0 | 8.0 | 0.00 | 0.00 | 0.00 | 55 | 1014.6 |
| 20260904173226 | 95 | 246 | 4.0 | 6.0 | 0.00 | 0.00 | 0.00 | 54 | 1014.4 |
| 20260904172723 | 94 | 253 | 4.0 | 6.0 | 0.00 | 0.00 | 0.00 | 54 | 1014.6 |
| 20260904172221 | 93 | 346 | 4.0 | 6.0 | 0.00 | 0.00 | 0.00 | 54 | 1014.6 |
| 20260904171717 | 93 | 291 | 3.0 | 6.0 | 0.00 | 0.00 | 0.00 | 55 | 1014.8 |
| 20260904171212 | 94 | 279 | 8.0 | 9.0 | 0.00 | 0.00 | 0.00 | 55 | 1014.7 |
| 20260904170708 | 94 | 290 | 3.0 | 3.0 | 0.00 | 0.00 | 0.00 | 55 | 1014.9 |
| 20260904170204 | 93 | 257 | 6.0 | 7.0 | 0.00 | 0.00 | 0.00 | 56 | 1014.8 |
| 20260904165703 | 93 | 267 | 5.0 | 7.0 | 0.00 | 0.00 | 0.00 | 57 | 1014.7 |
| 20260904165202 | 93 | 306 | 4.0 | 6.0 | 0.00 | 0.00 | 0.00 | 57 | 1014.7 |
| 20260904164658 | 94 | 273 | 3.0 | 4.0 | 0.00 | 0.00 | 0.00 | 59 | 1014.9 |
| 20260904164157 | 94 | 350 | 1.0 | 2.0 | 0.00 | 0.00 | 0.00 | 57 | 1014.9 |
| 20260904163654 | 93 | 342 | 2.0 | 4.0 | 0.00 | 0.00 | 0.00 | 58 | 1014.8 |
| 20260904163149 | 92 | 285 | 4.0 | 4.0 | 0.00 | 0.00 | 0.00 | 59 | 1015.0 |
| 20260904162648 | 92 | 271 | 4.0 | 4.0 | 0.00 | 0.00 | 0.00 | 60 | 1014.9 |
| 20260904162143 | 92 | 261 | 2.0 | 4.0 | 0.00 | 0.00 | 0.00 | 60 | 1015.0 |